Weather History for KOPF - May, 2014

Change the Weather History Date:

Sunday, May 11, 2014

  Actual Average Record
Temperature  
Mean Temperature 82 °F -  
Max Temperature 87 °F 85 °F 93 °F (2008)
Min Temperature 78 °F 70 °F 59 °F (1961)
Cooling Degree Days 17    
Growing Degree Days 32 (Base 50)    
Moisture  
Dew Point 67 °F    
Average Humidity 62    
Maximum Humidity 74    
Minimum Humidity 43    
Precipitation  
Precipitation 0.00 in - - ()
Sea Level Pressure  
Sea Level Pressure 30.10 in    
Wind  
Wind Speed 12 mph (ESE)    
Max Wind Speed 15 mph    
Max Gust Speed 20 mph    
Visibility 10 miles    
Events      
Averages and records for this station are not official NWS values.
T = Trace of Precipitation, MM = Missing Value Source: NWS Daily Summary

Daily Weather History Graph

Daily Weather History Graph

Search for Another Location

Airport or City:

Trip Planner

Search our weather history database for the weather conditions in past years. The results will help you decide how hot, cold, wet, or windy it might be!

Date:

Astronomy

May. 11, 2014 Rise Set
Actual Time 6:37 AM EDT 7:57 PM EDT
Civil Twilight 6:12 AM EDT 8:22 PM EDT
Nautical Twilight 5:43 AM EDT 8:52 PM EDT
Astronomical Twilight 5:12 AM EDT 9:22 PM EDT
Moon 5:09 PM EDT (5/11) 4:21 AM EDT (5/11)
Length of Visible Light 14h 10m
Length of Day
13h 20m
Waxing Gibbous, 89% of the Moon is Illuminated
May 11
Waxing Gibbous
May 14
Full
May 21
Last Quarter
May 28
New
Jun 5
First Quarter

Hourly Weather History & Observations

Time (EDT) Temp. Heat Index Dew Point Humidity Pressure Visibility Wind Dir Wind Speed Gust Speed Precip Events Conditions
12:04 AM 79.0 °F - 70.0 °F 74% 30.12 in 10.0 mi East 9.2 mph - N/A   Overcast
12:12 AM 80.1 °F 83.2 °F 70.0 °F 71% 30.12 in 10.0 mi East 12.7 mph - N/A   Overcast
12:19 AM 79.0 °F - 70.0 °F 74% 30.11 in 10.0 mi East 12.7 mph - N/A   Overcast
12:31 AM 78.8 °F - 69.8 °F 74% 30.11 in 10.0 mi ESE 13.8 mph - N/A   Mostly Cloudy
12:53 AM 79.0 °F - 70.0 °F 74% 30.11 in 10.0 mi ESE 12.7 mph - N/A   Mostly Cloudy
1:53 AM 79.0 °F - 70.0 °F 74% 30.09 in 10.0 mi ESE 11.5 mph - N/A   Scattered Clouds
3:53 AM 79.0 °F - 68.0 °F 69% 30.08 in 10.0 mi ESE 11.5 mph - N/A   Overcast
4:53 AM 79.0 °F - 68.0 °F 69% 30.07 in 10.0 mi SE 12.7 mph - N/A   Clear
5:53 AM 78.1 °F - 68.0 °F 71% 30.08 in 10.0 mi ESE 11.5 mph - N/A   Clear
6:53 AM 78.1 °F - 68.0 °F 71% 30.10 in 10.0 mi ESE 10.4 mph - N/A   Scattered Clouds
7:53 AM 80.1 °F 82.3 °F 66.9 °F 64% 30.12 in 10.0 mi ESE 8.1 mph - N/A   Partly Cloudy
8:53 AM 82.0 °F 84.9 °F 68.0 °F 62% 30.13 in 10.0 mi SE 11.5 mph - N/A   Clear
9:53 AM 82.9 °F 85.4 °F 66.9 °F 58% 30.14 in 10.0 mi ESE 12.7 mph - N/A   Partly Cloudy
10:53 AM 82.9 °F 85.8 °F 68.0 °F 60% 30.15 in 10.0 mi SE 13.8 mph - N/A   Scattered Clouds
11:53 AM 82.9 °F 85.4 °F 66.9 °F 58% 30.15 in 10.0 mi ESE 11.5 mph - N/A   Mostly Cloudy
12:53 PM 86.0 °F 88.8 °F 66.9 °F 53% 30.14 in 10.0 mi ESE 11.5 mph - N/A   Partly Cloudy
1:53 PM 84.9 °F 86.6 °F 64.9 °F 51% 30.13 in 10.0 mi SE 11.5 mph - N/A   Scattered Clouds
2:53 PM 84.9 °F 86.6 °F 64.9 °F 51% 30.11 in 10.0 mi ENE 13.8 mph 18.4 mph N/A   Scattered Clouds
3:53 PM 86.0 °F 87.3 °F 64.0 °F 48% 30.09 in 10.0 mi East 15.0 mph 19.6 mph N/A   Partly Cloudy
4:53 PM 86.0 °F 86.1 °F 61.0 °F 43% 30.08 in 10.0 mi ESE 12.7 mph - N/A   Clear
5:53 PM 82.9 °F 83.7 °F 62.1 °F 49% 30.07 in 10.0 mi East 15.0 mph - N/A   Clear
6:53 PM 81.0 °F 81.9 °F 62.1 °F 52% 30.06 in 10.0 mi East 15.0 mph - N/A   Clear
7:53 PM 80.1 °F 81.5 °F 63.0 °F 56% 30.07 in 10.0 mi East 13.8 mph - N/A   Partly Cloudy
8:53 PM 79.0 °F - 66.0 °F 64% 30.08 in 10.0 mi East 13.8 mph - N/A   Clear
9:53 PM 80.1 °F 82.3 °F 66.9 °F 64% 30.10 in 10.0 mi East 9.2 mph - N/A   Mostly Cloudy
10:53 PM 79.0 °F - 64.9 °F 62% 30.11 in 10.0 mi East 12.7 mph - N/A   Clear
11:53 PM 78.8 °F - 64.4 °F 61% 30.11 in 10.0 mi East 12.7 mph - N/A   Clear